FW3899 Weather Reports


Display with metric or nautical units.
time (UTC)temp
F
wind
direction
speed
MPH
gust
MPH
rain 1hr
in
rain 24hr
in
rain mn
in
humidity
%
barometer
mb
20260831234507 56 219 2.0 3.0 0.00 0.19 0.00 81 1020.5
20260831233008 57 220 0.0 3.0 0.00 0.19 0.00 80 1020.5
20260831231502 58 224 1.0 3.0 0.00 0.19 0.00 77 1020.5
20260831230058 60 224 0.0 2.0 0.00 0.19 0.00 73 1020.3
20260831224556 61 224 1.0 6.0 0.00 0.19 0.00 72 1020.4
20260831223053 61 221 4.0 6.0 0.00 0.19 0.00 71 1020.3
20260831221551 62 225 5.0 8.0 0.00 0.19 0.00 69 1020.3
20260831220108 61 234 5.0 8.0 0.00 0.19 0.00 70 1020.3
20260831214549 62 224 5.0 7.0 0.00 0.19 0.19 70 1020.3
20260831213047 62 226 5.0 6.0 0.00 0.19 0.19 68 1020.3
20260831211602 62 222 5.0 7.0 0.00 0.19 0.19 69 1020.3
20260831210050 63 232 5.0 11.0 0.00 0.19 0.19 68 1020.1
20260831204544 63 226 6.0 10.0 0.00 0.19 0.19 67 1020.1
20260831203042 64 234 5.0 8.0 0.00 0.19 0.19 66 1019.9
20260831201641 63 253 5.0 8.0 0.00 0.19 0.19 67 1019.8
20260831200043 64 222 3.0 6.0 0.00 0.19 0.19 67 1019.6
20260831194613 64 233 4.0 9.0 0.00 0.19 0.19 66 1019.4
20260831193040 64 203 3.0 6.0 0.00 0.19 0.19 68 1019.3
20260831191538 64 208 3.0 8.0 0.00 0.19 0.19 68 1019.1
20260831190033 65 167 3.0 5.0 0.00 0.19 0.19 65 1019.0
20260831184537 65 227 3.0 11.0 0.00 0.19 0.19 65 1018.6
20260831183029 66 208 3.0 6.0 0.00 0.19 0.19 63 1018.3
20260831181526 67 228 4.0 9.0 0.00 0.19 0.19 62 1018.0
20260831180031 68 284 8.0 15.0 0.00 0.19 0.19 61 1017.8
20260831174521 69 274 9.0 14.0 0.00 0.19 0.19 60 1017.6
20260831173021 70 286 11.0 18.0 0.00 0.19 0.19 59 1017.5
20260831171519 71 282 10.0 17.0 0.00 0.19 0.19 58 1017.2
20260831170019 72 276 11.0 18.0 0.00 0.19 0.19 57 1017.2
20260831164516 73 286 11.0 18.0 0.00 0.19 0.19 56 1016.9
20260831163015 74 280 8.0 14.0 0.00 0.19 0.19 54 1016.7
20260831161515 75 282 9.0 17.0 0.00 0.19 0.19 52 1016.7
20260831160025 75 278 12.0 23.0 0.00 0.19 0.19 47 1016.5
20260831154517 76 243 9.0 18.0 0.00 0.19 0.19 48 1016.6
20260831153012 76 265 13.0 19.0 0.00 0.19 0.19 44 1016.6
20260831151513 76 283 9.0 18.0 0.00 0.19 0.19 42 1016.4
20260831150014 76 236 13.0 24.0 0.00 0.19 0.19 39 1016.5
20260831144522 76 293 14.0 21.0 0.00 0.19 0.19 41 1016.3
20260831143011 77 274 14.0 21.0 0.00 0.19 0.19 40 1016.3
20260831141510 77 261 12.0 20.0 0.00 0.19 0.19 40 1016.2
20260831140009 76 279 12.0 25.0 0.00 0.19 0.19 40 1016.2
20260831134507 77 284 16.0 23.0 0.00 0.19 0.19 41 1016.2
20260831133005 76 244 12.0 32.0 0.00 0.19 0.19 43 1016.3
20260831131503 76 290 14.0 21.0 0.00 0.19 0.19 45 1016.3
20260831130001 75 257 15.0 27.0 0.00 0.19 0.19 45 1016.5
20260831124559 75 287 17.0 28.0 0.00 0.19 0.19 45 1016.5
20260831123057 75 238 19.0 26.0 0.00 0.19 0.19 50 1016.4
20260831121556 74 265 12.0 19.0 0.00 0.19 0.19 58 1016.5
20260831120055 73 265 19.0 30.0 0.00 0.19 0.19 58 1016.6
20260831114553 74 310 9.0 17.0 0.00 0.19 0.19 60 1016.7
20260831113052 73 305 7.0 13.0 0.00 0.19 0.19 59 1016.8
20260831111607 72 292 7.0 11.0 0.00 0.19 0.19 65 1017.0
20260831110113 70 293 4.0 9.0 0.00 0.19 0.19 69 1017.1
20260831104545 69 245 4.0 8.0 0.00 0.19 0.19 70 1017.0
20260831103043 70 274 3.0 8.0 0.00 0.19 0.19 70 1017.1
20260831101542 71 296 1.0 9.0 0.00 0.19 0.19 71 1017.2
20260831100039 71 278 6.0 9.0 0.00 0.19 0.19 72 1017.2
20260831094540 70 279 6.0 13.0 0.00 0.19 0.19 73 1017.2
20260831093034 69 288 9.0 13.0 0.00 0.19 0.19 73 1017.1
20260831091531 68 305 7.0 11.0 0.00 0.19 0.19 77 1017.2
20260831090029 68 289 5.0 10.0 0.00 0.19 0.19 79 1017.3
20260831084537 67 313 5.0 9.0 0.00 0.19 0.19 82 1017.1
20260831083023 66 223 5.0 9.0 0.00 0.19 0.19 83 1017.0
20260831081525 64 226 4.0 9.0 0.00 0.19 0.19 86 1017.0
20260831080020 64 270 3.0 6.0 0.00 0.19 0.19 86 1016.7
20260831074533 64 276 3.0 7.0 0.00 0.19 0.19 88 1016.6
20260831073045 63 306 3.0 7.0 0.00 0.19 0.19 88 1016.6
20260831071516 62 284 5.0 8.0 0.00 0.19 0.19 90 1016.4
20260831070018 62 301 3.0 8.0 0.00 0.19 0.19 91 1016.4
20260831064527 62 272 4.0 7.0 0.00 0.19 0.19 91 1016.3
20260831063017 62 293 4.0 8.0 0.00 0.19 0.19 91 1016.3
20260831061511 62 297 3.0 5.0 0.00 0.19 0.19 93 1016.2
20260831060009 61 293 3.0 4.0 0.00 0.19 0.19 93 1016.2
20260831054506 61 284 3.0 9.0 0.00 0.19 0.19 93 1016.0
20260831053015 61 268 3.0 6.0 0.00 0.19 0.19 93 1015.7
20260831051502 61 254 4.0 8.0 0.00 0.19 0.19 94 1015.8
20260831050139 60 258 5.0 8.0 0.00 0.19 0.19 93 1015.7
20260831044602 60 223 4.0 6.0 0.00 0.19 0.19 92 1015.5
20260831043057 61 263 3.0 9.0 0.00 0.19 0.19 91 1015.6
20260831041556 62 237 6.0 10.0 0.00 0.19 0.19 91 1015.5
20260831040056 62 240 7.0 12.0 0.00 0.19 0.19 90 1015.3
20260831034555 62 241 7.0 12.0 0.00 0.19 0.19 90 1015.3
20260831033054 61 228 6.0 11.0 0.00 0.19 0.19 92 1015.3
20260831031555 61 228 7.0 12.0 0.00 0.19 0.19 93 1015.4
20260831030057 61 226 4.0 7.0 0.00 0.19 0.19 92 1015.5
20260831024549 61 201 6.0 10.0 0.00 0.19 0.19 92 1015.4
20260831023047 61 220 5.0 12.0 0.00 0.19 0.19 92 1015.3
20260831021546 62 230 8.0 12.0 0.00 0.19 0.19 92 1015.3
20260831020045 62 229 7.0 12.0 0.00 0.19 0.19 92 1015.3
20260831014549 62 226 8.0 13.0 0.00 0.19 0.19 91 1015.1
20260831013043 62 256 7.0 11.0 0.00 0.19 0.19 91 1015.0
20260831011542 62 248 5.0 12.0 0.00 0.19 0.19 91 1015.0
20260831010042 62 238 4.0 8.0 0.01 0.19 0.19 92 1014.8
20260831004545 62 225 5.0 8.0 0.07 0.19 0.19 92 1014.7
20260831003040 62 231 5.0 12.0 0.19 0.19 0.19 92 1014.9
20260831001539 62 242 4.0 10.0 0.19 0.19 0.19 92 1014.8
20260831000053 62 259 10.0 19.0 0.17 0.17 0.17 91 1014.4
20260830234532 64 247 19.0 27.0 0.11 0.11 0.11 86 1015.2